ITY1647 LIML-LIBD

Flight info

Callsign ITY1647
Flight time 1h 17m
Altitude 35000
Route LOGDI DCT LURUT DCT NUTRO DCT ARSOB DCT AFCAM DCT BEFHE DCT EKMUR
Aircraft A320/M-SDE3FGHIRWY/LB1

Departure

Time 2026-05-07 07:17
Airport Milano Linate Airport (LIML)

Arrival

Time 2026-05-07 08:34
Airport Bari Karol Wojtyła International Airport (LIBD)
Time Latitude Longitude Altitude Speed Heading
2026-05-07 07:07 45.45972 9.27904 360 ft 0 kts
2026-05-07 07:08 45.45962 9.27904 362 ft 2 kts
2026-05-07 07:08 45.45939 9.27902 360 ft 2 kts
2026-05-07 07:08 45.45928 9.27902 360 ft 3 kts 19°
2026-05-07 07:08 45.45909 9.27883 360 ft 3 kts 67°
2026-05-07 07:09 45.45905 9.27871 363 ft 0 kts 86°
2026-05-07 07:11 45.45906 9.27891 360 ft 7 kts 86°
2026-05-07 07:12 45.45903 9.27959 362 ft 6 kts 112°
2026-05-07 07:12 45.45860 9.27981 363 ft 10 kts 174°
2026-05-07 07:12 45.45753 9.27982 362 ft 17 kts 180°
2026-05-07 07:12 45.45619 9.27979 364 ft 21 kts 181°
2026-05-07 07:13 45.45469 9.27973 360 ft 22 kts 182°
2026-05-07 07:13 45.45309 9.27941 361 ft 24 kts 201°
2026-05-07 07:13 45.45146 9.27879 360 ft 25 kts 175°
2026-05-07 07:13 45.44968 9.27901 357 ft 27 kts 175°
2026-05-07 07:14 45.44778 9.27942 356 ft 28 kts 171°
2026-05-07 07:14 45.44578 9.27964 354 ft 30 kts 175°
2026-05-07 07:14 45.44368 9.27987 353 ft 31 kts 176°
2026-05-07 07:14 45.44153 9.28008 356 ft 32 kts 176°
2026-05-07 07:15 45.43929 9.28031 353 ft 33 kts 176°
2026-05-07 07:15 45.43698 9.28054 353 ft 34 kts 176°
2026-05-07 07:15 45.43480 9.28071 347 ft 25 kts 204°
2026-05-07 07:15 45.43470 9.27877 352 ft 21 kts 292°
2026-05-07 07:16 45.43557 9.27811 348 ft 0 kts 356°
2026-05-07 07:16 45.43583 9.27809 351 ft 24 kts 356°
2026-05-07 07:16 45.44039 9.27761 349 ft 103 kts 355°
2026-05-07 07:17 45.44778 9.27670 363 ft 153 kts 354°
2026-05-07 07:17 45.45907 9.27482 777 ft 169 kts 352°
2026-05-07 07:17 45.47095 9.27392 1564 ft 170 kts
2026-05-07 07:17 45.48319 9.27582 2121 ft 186 kts
2026-05-07 07:18 45.49635 9.27845 2726 ft 193 kts
2026-05-07 07:18 45.50931 9.28246 3390 ft 195 kts 24°
2026-05-07 07:18 45.52024 9.29485 3752 ft 214 kts 60°
2026-05-07 07:18 45.52329 9.31587 3910 ft 218 kts 104°
2026-05-07 07:19 45.51664 9.33522 4214 ft 221 kts 130°
2026-05-07 07:19 45.50609 9.35379 4166 ft 257 kts 126°
2026-05-07 07:19 45.49557 9.37543 4286 ft 273 kts 126°
2026-05-07 07:19 45.48491 9.39743 5254 ft 272 kts 125°
2026-05-07 07:20 45.47413 9.41978 6277 ft 274 kts 125°
2026-05-07 07:20 45.46326 9.44230 7114 ft 278 kts 125°
2026-05-07 07:20 45.45225 9.46519 7928 ft 282 kts 125°
2026-05-07 07:20 45.44116 9.48840 8740 ft 285 kts 125°
2026-05-07 07:21 45.43006 9.51176 9565 ft 289 kts 125°
2026-05-07 07:21 45.41870 9.53575 10329 ft 295 kts 125°
2026-05-07 07:21 45.40675 9.56084 10601 ft 317 kts 125°
2026-05-07 07:21 45.39406 9.58741 10857 ft 337 kts 125°
2026-05-07 07:22 45.37958 9.61431 11447 ft 344 kts 135°
2026-05-07 07:22 45.36163 9.63691 12134 ft 346 kts 146°
2026-05-07 07:22 45.34118 9.65529 12843 ft 350 kts 150°
2026-05-07 07:22 45.32025 9.67345 13545 ft 353 kts 151°
2026-05-07 07:23 45.29943 9.69148 14194 ft 357 kts 151°
2026-05-07 07:23 45.27811 9.70996 14821 ft 360 kts 151°
2026-05-07 07:23 45.25664 9.72864 15453 ft 363 kts 152°
2026-05-07 07:23 45.23496 9.74751 16071 ft 366 kts 152°
2026-05-07 07:24 45.21311 9.76653 16703 ft 369 kts 152°
2026-05-07 07:24 45.19104 9.78570 17326 ft 372 kts 152°
2026-05-07 07:24 45.16912 9.80467 17927 ft 375 kts 153°
2026-05-07 07:24 45.14668 9.82409 18511 ft 378 kts 153°
2026-05-07 07:25 45.10168 9.86309 19590 ft 383 kts 153°
2026-05-07 07:25 45.07882 9.88277 20139 ft 386 kts 154°
2026-05-07 07:25 45.05578 9.90256 20690 ft 388 kts 154°
2026-05-07 07:26 45.03255 9.92250 21237 ft 391 kts 154°
2026-05-07 07:26 45.00919 9.94261 21784 ft 394 kts 154°
2026-05-07 07:26 44.98603 9.96256 22308 ft 396 kts 154°
2026-05-07 07:26 44.96235 9.98293 22827 ft 399 kts 155°
2026-05-07 07:27 44.93856 10.00341 23336 ft 401 kts 155°
2026-05-07 07:27 44.91467 10.02391 23784 ft 403 kts 155°
2026-05-07 07:27 44.89054 10.04455 24208 ft 406 kts 155°
2026-05-07 07:27 44.86666 10.06495 24598 ft 408 kts 155°
2026-05-07 07:28 44.84200 10.08601 24986 ft 410 kts 156°
2026-05-07 07:28 44.81783 10.10668 25361 ft 412 kts 156°
2026-05-07 07:28 44.79315 10.12778 25726 ft 414 kts 156°
2026-05-07 07:28 44.76869 10.14860 26076 ft 416 kts 156°
2026-05-07 07:29 44.74458 10.17203 26422 ft 426 kts 147°
2026-05-07 07:29 44.72324 10.20191 26768 ft 439 kts 136°
2026-05-07 07:29 44.70576 10.23782 27099 ft 452 kts 125°
2026-05-07 07:29 44.69328 10.27843 27414 ft 464 kts 115°
2026-05-07 07:30 44.68311 10.32178 27739 ft 466 kts 114°
2026-05-07 07:30 44.67287 10.36528 28063 ft 468 kts 115°
2026-05-07 07:30 44.66266 10.40835 28378 ft 470 kts 115°
2026-05-07 07:30 44.65222 10.45213 28681 ft 472 kts 115°
2026-05-07 07:31 44.64170 10.49600 28977 ft 474 kts 115°
2026-05-07 07:31 44.63107 10.54006 29273 ft 476 kts 115°
2026-05-07 07:31 44.62055 10.58375 29548 ft 478 kts 115°
2026-05-07 07:31 44.60989 10.62806 29816 ft 480 kts 115°
2026-05-07 07:32 44.59914 10.67267 30078 ft 482 kts 115°
2026-05-07 07:32 44.58837 10.71733 30304 ft 483 kts 115°
2026-05-07 07:32 44.57753 10.76210 30528 ft 484 kts 115°
2026-05-07 07:32 44.56677 10.80639 30740 ft 486 kts 115°
2026-05-07 07:33 44.55584 10.85128 30950 ft 487 kts 115°
2026-05-07 07:33 44.54484 10.89632 31209 ft 486 kts 115°
2026-05-07 07:33 44.53390 10.94108 31501 ft 485 kts 115°
2026-05-07 07:33 44.52192 10.98501 31788 ft 479 kts 122°
2026-05-07 07:34 44.50639 11.02584 32066 ft 472 kts 127°
2026-05-07 07:34 44.49004 11.06573 32347 ft 472 kts 127°
2026-05-07 07:34 44.47384 11.10520 32614 ft 471 kts 127°
2026-05-07 07:34 44.45750 11.14499 32901 ft 471 kts 127°
2026-05-07 07:35 44.44118 11.18477 33190 ft 470 kts 127°
2026-05-07 07:35 44.42490 11.22451 33470 ft 469 kts 127°
2026-05-07 07:35 44.40883 11.26370 33761 ft 469 kts 127°
2026-05-07 07:35 44.39258 11.30327 34045 ft 468 kts 127°
2026-05-07 07:36 44.37631 11.34281 34279 ft 468 kts 127°
2026-05-07 07:36 44.36004 11.38228 34502 ft 468 kts 127°
2026-05-07 07:36 44.34370 11.42178 34710 ft 469 kts 127°
2026-05-07 07:36 44.32750 11.46075 34905 ft 469 kts 127°
2026-05-07 07:37 44.31111 11.50013 34992 ft 468 kts 127°
2026-05-07 07:37 44.27850 11.57864 35009 ft 466 kts 127°
2026-05-07 07:38 44.24593 11.65689 35006 ft 466 kts 127°
2026-05-07 07:38 44.21354 11.73448 35003 ft 466 kts 127°
2026-05-07 07:39 44.18082 11.81258 35000 ft 466 kts 127°
2026-05-07 07:39 44.14802 11.89072 34991 ft 466 kts 127°
2026-05-07 07:40 44.11529 11.96828 34989 ft 467 kts 127°
2026-05-07 07:40 44.08242 12.04620 34983 ft 467 kts 127°
2026-05-07 07:41 44.04947 12.12412 34980 ft 466 kts 127°
2026-05-07 07:41 44.01671 12.20130 34984 ft 466 kts 128°
2026-05-07 07:42 43.98368 12.27884 34979 ft 465 kts 128°
2026-05-07 07:42 43.95060 12.35619 34981 ft 466 kts 128°
2026-05-07 07:43 43.91747 12.43351 34982 ft 465 kts 128°
2026-05-07 07:43 43.88451 12.51032 34980 ft 465 kts 128°
2026-05-07 07:44 43.85141 12.58748 34978 ft 465 kts 128°
2026-05-07 07:44 43.81837 12.66401 34982 ft 465 kts 128°
2026-05-07 07:45 43.78510 12.74086 34980 ft 464 kts 128°
2026-05-07 07:45 43.75204 12.81703 34978 ft 464 kts 128°
2026-05-07 07:46 43.71877 12.89358 34975 ft 464 kts 128°
2026-05-07 07:46 43.68546 12.97005 34987 ft 463 kts 128°
2026-05-07 07:47 43.65236 13.04580 34992 ft 463 kts 128°
2026-05-07 07:47 43.61905 13.12176 34995 ft 462 kts 128°
2026-05-07 07:48 43.58562 13.19762 34998 ft 461 kts 128°
2026-05-07 07:48 43.55255 13.27271 34994 ft 460 kts 128°
2026-05-07 07:49 43.51924 13.34820 35001 ft 459 kts 127°
2026-05-07 07:49 43.48625 13.42289 35004 ft 459 kts 127°
2026-05-07 07:50 43.45296 13.49778 35004 ft 457 kts 128°
2026-05-07 07:50 43.41964 13.57239 35002 ft 457 kts 127°
2026-05-07 07:51 43.38637 13.64684 35005 ft 456 kts 127°
2026-05-07 07:51 43.35319 13.72108 35009 ft 455 kts 127°
2026-05-07 07:52 43.32018 13.79468 35009 ft 454 kts 127°
2026-05-07 07:52 43.28697 13.86859 35004 ft 454 kts 127°
2026-05-07 07:53 43.25374 13.94218 35001 ft 453 kts 127°
2026-05-07 07:53 43.22064 14.01534 35000 ft 453 kts 127°
2026-05-07 07:54 43.18734 14.08875 34995 ft 453 kts 127°
2026-05-07 07:54 43.15262 14.16065 34992 ft 447 kts 135°
2026-05-07 07:55 43.11210 14.22441 34990 ft 446 kts 136°
2026-05-07 07:55 43.07121 14.28847 34994 ft 446 kts 136°
2026-05-07 07:56 43.03029 14.35248 34994 ft 447 kts 136°
2026-05-07 07:56 42.98954 14.41605 34990 ft 447 kts 136°
2026-05-07 07:57 42.94847 14.48011 34987 ft 447 kts 136°
2026-05-07 07:57 42.90759 14.54367 34990 ft 448 kts 136°
2026-05-07 07:58 42.86635 14.60761 34988 ft 448 kts 136°
2026-05-07 07:58 42.82534 14.67102 34986 ft 448 kts 136°
2026-05-07 07:59 42.78393 14.73493 34983 ft 449 kts 136°
2026-05-07 07:59 42.74257 14.79858 34984 ft 449 kts 136°
2026-05-07 08:00 42.70147 14.86180 34984 ft 449 kts 136°
2026-05-07 08:00 42.65784 14.92192 34984 ft 445 kts 143°
2026-05-07 08:01 42.61127 14.97773 34985 ft 445 kts 143°
2026-05-07 08:01 42.56488 15.03343 34987 ft 445 kts 143°
2026-05-07 08:02 42.51881 15.08878 34987 ft 445 kts 143°
2026-05-07 08:02 42.47231 15.14437 34992 ft 445 kts 143°
2026-05-07 08:03 42.42571 15.19982 34991 ft 445 kts 143°
2026-05-07 08:03 42.37939 15.25493 34992 ft 446 kts 143°
2026-05-07 08:03 42.35608 15.28271 34797 ft 447 kts 143°
2026-05-07 08:04 42.33272 15.31052 34554 ft 446 kts 143°
2026-05-07 08:04 42.30939 15.33828 34275 ft 446 kts 143°
2026-05-07 08:04 42.28593 15.36610 33263 ft 452 kts 143°
2026-05-07 08:04 42.26266 15.39361 32706 ft 446 kts 143°
2026-05-07 08:05 42.23946 15.42104 32129 ft 441 kts 143°
2026-05-07 08:05 42.21648 15.44819 31569 ft 437 kts 143°
2026-05-07 08:05 42.19365 15.47510 30991 ft 433 kts 143°
2026-05-07 08:05 42.17095 15.50181 30436 ft 430 kts 143°
2026-05-07 08:06 42.14847 15.52828 29847 ft 427 kts 143°
2026-05-07 08:06 42.12649 15.55414 29293 ft 423 kts 143°
2026-05-07 08:06 42.10438 15.58015 28755 ft 419 kts 142°
2026-05-07 08:06 42.08250 15.60590 28227 ft 414 kts 142°
2026-05-07 08:07 42.06085 15.63137 27696 ft 411 kts 142°
2026-05-07 08:07 42.03962 15.65629 27198 ft 407 kts 142°
2026-05-07 08:07 42.01828 15.68128 26702 ft 404 kts 142°
2026-05-07 08:07 41.99713 15.70603 26204 ft 401 kts 143°
2026-05-07 08:08 41.97613 15.73055 25731 ft 399 kts 142°
2026-05-07 08:08 41.95547 15.75467 25261 ft 396 kts 142°
2026-05-07 08:08 41.93485 15.77907 24807 ft 395 kts 139°
2026-05-07 08:08 41.91613 15.80618 24350 ft 394 kts 135°
2026-05-07 08:09 41.89790 15.83362 23886 ft 392 kts 135°
2026-05-07 08:09 41.87992 15.86063 23392 ft 391 kts 135°
2026-05-07 08:09 41.86184 15.88780 22913 ft 388 kts 135°
2026-05-07 08:09 41.84391 15.91470 22454 ft 385 kts 135°
2026-05-07 08:10 41.82612 15.94135 21996 ft 382 kts 135°
2026-05-07 08:10 41.80841 15.96779 21532 ft 379 kts 136°
2026-05-07 08:10 41.79083 15.99401 21062 ft 377 kts 136°
2026-05-07 08:10 41.77355 16.01983 20598 ft 375 kts 136°
2026-05-07 08:11 41.75615 16.04581 20128 ft 374 kts 136°
2026-05-07 08:11 41.73874 16.07179 19655 ft 373 kts 136°
2026-05-07 08:11 41.72138 16.09765 19180 ft 373 kts 136°
2026-05-07 08:11 41.70422 16.12320 18706 ft 373 kts 137°
2026-05-07 08:12 41.68692 16.14893 18230 ft 372 kts 137°
2026-05-07 08:12 41.66955 16.17468 17727 ft 371 kts 137°
2026-05-07 08:12 41.65234 16.20026 17264 ft 369 kts 136°
2026-05-07 08:12 41.63523 16.22576 16812 ft 367 kts 136°
2026-05-07 08:13 41.61820 16.25113 16361 ft 365 kts 136°
2026-05-07 08:13 41.60141 16.27604 15914 ft 364 kts 136°
2026-05-07 08:13 41.58448 16.30108 15469 ft 362 kts 136°
2026-05-07 08:13 41.56757 16.32601 15026 ft 361 kts 136°
2026-05-07 08:14 41.55072 16.35078 14576 ft 360 kts 136°
2026-05-07 08:14 41.53394 16.37546 14133 ft 358 kts 136°
2026-05-07 08:14 41.51660 16.39918 13675 ft 355 kts 141°
2026-05-07 08:14 41.49837 16.42133 13228 ft 353 kts 142°
2026-05-07 08:15 41.48051 16.44302 12752 ft 350 kts 141°
2026-05-07 08:15 41.46258 16.46479 12325 ft 347 kts 141°
2026-05-07 08:15 41.44474 16.48645 11881 ft 345 kts 141°
2026-05-07 08:15 41.42706 16.50790 11433 ft 343 kts 141°
2026-05-07 08:16 41.41100 16.53148 10982 ft 345 kts 128°
2026-05-07 08:16 41.39823 16.55866 10522 ft 345 kts 124°
2026-05-07 08:16 41.38592 16.58585 10232 ft 338 kts 124°
2026-05-07 08:16 41.37416 16.61182 10123 ft 325 kts 124°
2026-05-07 08:17 41.36266 16.63715 9999 ft 314 kts 124°
2026-05-07 08:17 41.35123 16.66215 9411 ft 319 kts 124°
2026-05-07 08:17 41.33961 16.68746 8883 ft 321 kts 124°
2026-05-07 08:17 41.32794 16.71290 8367 ft 321 kts 124°
2026-05-07 08:18 41.31640 16.73808 7855 ft 322 kts 124°
2026-05-07 08:18 41.30473 16.76358 7337 ft 322 kts 123°
2026-05-07 08:18 41.29303 16.78912 6817 ft 322 kts 123°
2026-05-07 08:18 41.28565 16.80629 6463 ft 323 kts 117°
2026-05-07 08:19 41.27974 16.83511 5931 ft 326 kts 96°
2026-05-07 08:19 41.28424 16.87439 5257 ft 326 kts 70°
2026-05-07 08:19 41.29217 16.90190 5153 ft 310 kts 70°
2026-05-07 08:19 41.29719 16.91945 5075 ft 300 kts 70°
2026-05-07 08:20 41.30443 16.94488 4952 ft 287 kts 71°
2026-05-07 08:20 41.31121 16.96905 4891 ft 271 kts 71°
2026-05-07 08:20 41.31760 16.99199 4838 ft 256 kts 71°
2026-05-07 08:20 41.32370 17.01390 4776 ft 247 kts 71°
2026-05-07 08:21 41.32959 17.03506 4723 ft 246 kts 72°
2026-05-07 08:21 41.33553 17.05640 4672 ft 246 kts 72°
2026-05-07 08:21 41.34145 17.07773 4617 ft 245 kts 72°
2026-05-07 08:21 41.34735 17.09895 4570 ft 244 kts 72°
2026-05-07 08:22 41.35325 17.12016 4515 ft 244 kts 72°
2026-05-07 08:22 41.35907 17.14113 4459 ft 244 kts 72°
2026-05-07 08:22 41.36496 17.16236 4388 ft 244 kts 72°
2026-05-07 08:22 41.37085 17.18360 4349 ft 244 kts 73°
2026-05-07 08:23 41.37669 17.20480 4294 ft 243 kts 76°
2026-05-07 08:23 41.37827 17.22660 4241 ft 233 kts 105°
2026-05-07 08:23 41.37225 17.24561 4187 ft 222 kts 133°
2026-05-07 08:23 41.36070 17.25851 4134 ft 214 kts 159°
2026-05-07 08:24 41.34687 17.26551 4096 ft 210 kts 163°
2026-05-07 08:24 41.33354 17.27196 4042 ft 197 kts 163°
2026-05-07 08:24 41.32095 17.27811 3990 ft 190 kts 163°
2026-05-07 08:24 41.30862 17.28412 3952 ft 188 kts 163°
2026-05-07 08:25 41.29653 17.28973 4005 ft 186 kts 171°
2026-05-07 08:25 41.28393 17.28882 4012 ft 182 kts 202°
2026-05-07 08:25 41.27381 17.27882 4016 ft 186 kts 232°
2026-05-07 08:25 41.26839 17.26299 4022 ft 190 kts 245°
2026-05-07 08:26 41.25936 17.23011 4012 ft 190 kts 246°
2026-05-07 08:26 41.25479 17.21356 4015 ft 190 kts 246°
2026-05-07 08:26 41.25021 17.19702 4020 ft 191 kts 245°
2026-05-07 08:27 41.24559 17.18043 4014 ft 191 kts 245°
2026-05-07 08:27 41.24103 17.16406 4013 ft 192 kts 245°
2026-05-07 08:27 41.23637 17.14736 4008 ft 192 kts 246°
2026-05-07 08:27 41.23175 17.13075 4009 ft 191 kts 246°
2026-05-07 08:28 41.22714 17.11416 4009 ft 191 kts 246°
2026-05-07 08:28 41.22252 17.09760 4008 ft 191 kts 246°
2026-05-07 08:28 41.21793 17.08118 4007 ft 191 kts 246°
2026-05-07 08:28 41.21397 17.06432 3967 ft 194 kts 254°
2026-05-07 08:29 41.21120 17.04631 3490 ft 203 kts 254°
2026-05-07 08:29 41.20834 17.02774 3007 ft 206 kts 254°
2026-05-07 08:29 41.20556 17.00950 2700 ft 200 kts 253°
2026-05-07 08:29 41.20290 16.99186 2539 ft 189 kts 252°
2026-05-07 08:30 41.19922 16.97595 2436 ft 173 kts 243°
2026-05-07 08:30 41.19518 16.96151 2348 ft 160 kts 243°
2026-05-07 08:30 41.19148 16.94823 2263 ft 146 kts 242°
2026-05-07 08:30 41.18806 16.93599 2205 ft 141 kts 242°
2026-05-07 08:31 41.18464 16.92386 2149 ft 139 kts 242°
2026-05-07 08:31 41.18125 16.91186 2084 ft 138 kts 242°
2026-05-07 08:31 41.17790 16.89995 2043 ft 138 kts 243°
2026-05-07 08:31 41.17456 16.88811 1935 ft 137 kts 242°
2026-05-07 08:32 41.17121 16.87627 1726 ft 137 kts 243°
2026-05-07 08:32 41.16791 16.86465 1533 ft 136 kts 244°
2026-05-07 08:32 41.16458 16.85287 1354 ft 136 kts 242°
2026-05-07 08:32 41.16133 16.84127 1170 ft 133 kts 242°
2026-05-07 08:33 41.15807 16.82977 984 ft 134 kts 242°
2026-05-07 08:33 41.15472 16.81800 804 ft 140 kts 243°
2026-05-07 08:33 41.15125 16.80584 632 ft 141 kts 242°
2026-05-07 08:33 41.14785 16.79382 444 ft 136 kts 243°
2026-05-07 08:34 41.14455 16.78209 265 ft 136 kts 244°
2026-05-07 08:34 41.14138 16.77062 141 ft 129 kts 244°
2026-05-07 08:34 41.13869 16.76171 149 ft 65 kts 250°
2026-05-07 08:34 41.13784 16.75853 160 ft 28 kts 250°
2026-05-07 08:35 41.13730 16.75740 165 ft 0 kts 218°
2026-05-07 08:35 41.13686 16.75697 166 ft 25 kts 219°
2026-05-07 08:35 41.13574 16.75725 165 ft 18 kts 82°
2026-05-07 08:35 41.13616 16.75880 162 ft 20 kts 71°
2026-05-07 08:36 41.13595 16.76063 155 ft 22 kts 133°
2026-05-07 08:36 41.13509 16.76208 154 ft 7 kts 136°
2026-05-07 08:36 41.13492 16.76229 154 ft 0 kts 137°
2026-05-07 08:37 41.13491 16.76230 154 ft 0 kts 137°